Weather History for Eureka Airport, NV

Change the Weather History Date:

Sunday, April 29, 2012

  Actual Average Record
Temperature  
Mean Temperature 46 °F -  
Max Temperature 68 °F - - ()
Min Temperature 24 °F - - ()
Degree Days  
Heating Degree Days 19    
Moisture  
Dew Point 22 °F    
Average Humidity 43    
Maximum Humidity 80    
Minimum Humidity 15    
Precipitation  
Precipitation 0.00 in - - ()
Sea Level Pressure  
Sea Level Pressure 30.11 in    
Wind  
Wind Speed 3 mph ()    
Max Wind Speed 12 mph    
Max Gust Speed -    
Visibility 10.0 miles    
Events      
T = Trace of Precipitation, MM = Missing Value Source: Averaged Metar Reports

Daily Weather History Graph

Daily Weather History Graph

Search for Another Location

Airport:

Trip Planner

Search our weather history database for the weather conditions in past years. The results will help you decide how hot, cold, wet, or windy it might be!

Date:

Astronomy

Apr. 29, 2012 Rise Set
Actual Time 5:46 AM PDT 7:36 PM PDT
Civil Twilight 5:17 AM PDT 8:05 PM PDT
Nautical Twilight 4:42 AM PDT 8:40 PM PDT
Astronomical Twilight 4:04 AM PDT 9:18 PM PDT
Moon 12:35 PM PDT 1:38 AM PDT
Length of Visible Light 14h 47m
Length of Day
13h 49m
First Quarter, 54% of the Moon is Illuminated
Apr 29
First Quarter
May 5
Full
May 12
Last Quarter
May 20
New
May 28
First Quarter

Hourly Weather History & Observations

Time (PDT) Temp. Windchill Dew Point Humidity Pressure Visibility Wind Dir Wind Speed Gust Speed Precip Events Conditions
12:00 AM 35.6 °F - 23.0 °F 60% 30.12 in 10.0 mi Calm Calm - N/A   Clear
12:20 AM 30.2 °F - 17.6 °F 60% 30.12 in 10.0 mi Calm Calm - N/A   Clear
12:40 AM 30.2 °F - 19.4 °F 64% 30.12 in 10.0 mi Calm Calm - N/A   Clear
1:00 AM 30.2 °F 24.3 °F 21.2 °F 69% 30.12 in 10.0 mi SSW 5.8 mph - N/A   Clear
1:20 AM 30.2 °F 26.7 °F 21.2 °F 69% 30.12 in 10.0 mi South 3.5 mph - N/A   Clear
1:40 AM 30.2 °F - 19.4 °F 64% 30.12 in 10.0 mi Calm Calm - N/A   Clear
2:00 AM 28.4 °F - 19.4 °F 69% 30.12 in 10.0 mi Calm Calm - N/A   Clear
2:20 AM 28.4 °F 21.2 °F 21.2 °F 74% 30.11 in 10.0 mi SSE 6.9 mph - N/A   Clear
2:40 AM 32.0 °F 26.4 °F 21.2 °F 64% 30.11 in 10.0 mi SSE 5.8 mph - N/A   Clear
3:00 AM 28.4 °F 23.3 °F 21.2 °F 74% 30.11 in 10.0 mi SSE 4.6 mph - N/A   Clear
3:20 AM 28.4 °F 24.6 °F 21.2 °F 74% 30.11 in 10.0 mi SSE 3.5 mph - N/A   Clear
3:40 AM 28.4 °F 21.2 °F 23.0 °F 80% 30.12 in 10.0 mi SSE 6.9 mph - N/A   Clear
4:00 AM 30.2 °F - 23.0 °F 75% 30.11 in 10.0 mi Calm Calm - N/A   Clear
5:00 AM 28.4 °F 23.3 °F 21.2 °F 74% 30.12 in 10.0 mi South 4.6 mph - N/A   Clear
5:20 AM 28.4 °F - 19.4 °F 69% 30.12 in 10.0 mi Calm Calm - N/A   Clear
5:40 AM 24.8 °F 19.1 °F 17.6 °F 74% 30.12 in 10.0 mi South 4.6 mph - N/A   Clear
6:00 AM 26.6 °F 21.2 °F 19.4 °F 74% 30.13 in 10.0 mi South 4.6 mph - N/A   Clear
6:20 AM 26.6 °F 21.2 °F 19.4 °F 74% 30.13 in 10.0 mi South 4.6 mph - N/A   Clear
6:40 AM 30.2 °F 25.4 °F 23.0 °F 75% 30.14 in 10.0 mi South 4.6 mph - N/A   Clear
7:00 AM 33.8 °F 30.8 °F 24.8 °F 70% 30.14 in 10.0 mi South 3.5 mph - N/A   Clear
7:20 AM 39.2 °F - 24.8 °F 56% 30.14 in 10.0 mi Calm Calm - N/A   Clear
7:40 AM 41.0 °F - 24.8 °F 53% 30.14 in 10.0 mi Calm Calm - N/A   Clear
8:00 AM 44.6 °F - 26.6 °F 49% 30.15 in 10.0 mi Calm Calm - N/A   Clear
8:20 AM 48.2 °F - 26.6 °F 43% 30.15 in 10.0 mi Calm Calm - N/A   Clear
8:40 AM 48.2 °F - 26.6 °F 43% 30.15 in 10.0 mi Calm Calm - N/A   Clear
9:00 AM 50.0 °F - 26.6 °F 40% 30.15 in 10.0 mi ENE 3.5 mph - N/A   Clear
9:20 AM - - - N/A% 30.15 in 10.0 mi NE 3.5 mph - N/A   Clear
9:40 AM 51.8 °F - 26.6 °F 38% 30.15 in 10.0 mi Calm Calm - N/A   Clear
10:00 AM 53.6 °F - 24.8 °F 33% 30.15 in 10.0 mi Calm Calm - N/A   Clear
10:20 AM 53.6 °F - 24.8 °F 33% 30.15 in 10.0 mi SE 4.6 mph - N/A   Clear
10:40 AM 55.4 °F - 24.8 °F 31% 30.15 in 10.0 mi NNE 5.8 mph - N/A   Clear
11:00 AM 55.4 °F - 24.8 °F 31% 30.15 in 10.0 mi Calm Calm - N/A   Clear
11:20 AM 57.2 °F - 24.8 °F 29% 30.14 in 10.0 mi NE 6.9 mph - N/A   Clear
11:40 AM 57.2 °F - 24.8 °F 29% 30.14 in 10.0 mi North 5.8 mph - N/A   Clear
12:00 PM 57.2 °F - 23.0 °F 27% 30.14 in 10.0 mi WNW 3.5 mph - N/A   Clear
12:20 PM 59.0 °F - 24.8 °F 27% 30.13 in 10.0 mi Calm Calm - N/A   Clear
12:40 PM 59.0 °F - 24.8 °F 27% 30.12 in 10.0 mi NE 4.6 mph - N/A   Clear
1:00 PM 59.0 °F - 24.8 °F 27% 30.12 in 10.0 mi Calm Calm - N/A   Clear
1:20 PM 60.8 °F - 23.0 °F 23% 30.11 in 10.0 mi Calm Calm - N/A   Clear
2:00 PM 62.6 °F - 23.0 °F 22% 30.09 in 10.0 mi WNW 4.6 mph - N/A   Clear
2:20 PM 64.4 °F - 21.2 °F 19% 30.09 in 10.0 mi NE 8.1 mph - N/A   Clear
2:40 PM 64.4 °F - 21.2 °F 19% 30.08 in 10.0 mi WNW 3.5 mph - N/A   Clear
3:00 PM 64.4 °F - 19.4 °F 18% 30.08 in 10.0 mi Calm Calm - N/A   Clear
3:20 PM 66.2 °F - 19.4 °F 17% 30.07 in 10.0 mi NE 6.9 mph - N/A   Clear
3:40 PM 66.2 °F - 19.4 °F 17% 30.07 in 10.0 mi North 6.9 mph - N/A   Clear
4:00 PM 66.2 °F - 17.6 °F 15% 30.06 in 10.0 mi NE 4.6 mph - N/A   Clear
4:20 PM 66.2 °F - 19.4 °F 17% 30.06 in 10.0 mi West 4.6 mph - N/A   Clear
4:40 PM 66.2 °F - 19.4 °F 17% 30.06 in 10.0 mi NNE 8.1 mph - N/A   Clear
5:00 PM 68.0 °F - 19.4 °F 16% 30.05 in 10.0 mi NE 8.1 mph - N/A   Clear
5:20 PM 66.2 °F - 19.4 °F 17% 30.05 in 10.0 mi East 3.5 mph - N/A   Clear
5:40 PM 66.2 °F - 23.0 °F 19% 30.05 in 10.0 mi NNE 11.5 mph - N/A   Clear
6:00 PM 66.2 °F - 23.0 °F 19% 30.05 in 10.0 mi North 4.6 mph - N/A   Clear
6:20 PM 64.4 °F - 23.0 °F 21% 30.06 in 10.0 mi North 6.9 mph - N/A   Clear
6:40 PM 64.4 °F - 19.4 °F 18% 30.06 in 10.0 mi NNE 9.2 mph - N/A   Clear
7:00 PM 62.6 °F - 24.8 °F 24% 30.06 in 10.0 mi NNE 8.1 mph - N/A   Clear
7:20 PM 59.0 °F - 24.8 °F 27% 30.06 in 10.0 mi NNE 8.1 mph - N/A   Clear
8:00 PM 51.8 °F - 23.0 °F 33% 30.07 in 10.0 mi North 4.6 mph - N/A   Clear
8:20 PM 50.0 °F - 23.0 °F 35% 30.07 in 10.0 mi NNW 5.8 mph - N/A   Clear
9:40 PM 42.8 °F 39.3 °F 21.2 °F 42% 30.11 in 10.0 mi South 5.8 mph - N/A   Clear
10:00 PM 41.0 °F 39.0 °F 19.4 °F 42% 30.11 in 10.0 mi South 3.5 mph - N/A   Clear
10:20 PM 39.2 °F - 19.4 °F 45% 30.11 in 10.0 mi Calm Calm - N/A   Clear
10:40 PM 37.4 °F 33.8 °F 19.4 °F 48% 30.12 in 10.0 mi SSW 4.6 mph - N/A   Clear
11:00 PM 37.4 °F - 23.0 °F 56% 30.11 in 10.0 mi Calm Calm - N/A   Clear
11:20 PM 39.2 °F - 23.0 °F 52% 30.11 in 10.0 mi Calm Calm - N/A   Clear
11:40 PM 37.4 °F 33.8 °F 21.2 °F 52% 30.10 in 10.0 mi South 4.6 mph - N/A   Clear